This demonstration page uses our WeatherBlox Daily Observations layout. Learn more.

Left ArrowRight Arrow

Hourly Observations for April 5, 2022

Temp ( °F °C ) Dew Point ( °F °C ) Humidity (%) Winds ( mph kmh ) Pressure ( in mb ) Visibility ( mi km ) Precip ( " mm )
12:56 am 00:56 Clear 51 10.6 28 -2.2 41 41 S 22 35 29.54 1001 10 16 0.00 0.00
1:56 am 01:56 Clear 51 10.6 30 -1.1 44 44 S 23 37 29.50 999 10 16 0.00 0.00
2:56 am 02:56 Clear 50 10 30 -1.1 46 46 S 24 39 29.48 998 10 16 0.00 0.00
3:56 am 03:56 Clear 49 9.4 32 0 52 52 SSW 20 31 29.44 997 10 16 0.00 0.00
4:56 am 04:56 Clear 46 7.8 32 0 58 58 SSW 13 20 29.43 997 10 16 0.00 0.00
5:56 am 05:56 Clear 44 6.7 34 1.1 68 68 SSW 10 17 29.41 996 10 16 0.00 0.00
6:24 am 06:24 Mostly Cloudy 45 7 34 1 66 66 S 5 7 29.48 998 10 16 0.00 0.00
6:31 am 06:31 Partly Cloudy 43 6 32 0 66 66 S 5 7 29.48 998 10 16 0.00 0.00
6:56 am 06:56 Mostly Clear 43 6.1 34 1.1 71 71 S 14 22 29.39 995 10 16 0.00 0.00
7:56 am 07:56 Mostly Sunny 44 6.7 36 2.2 73 73 S 7 11 29.40 996 10 16 0.00 0.00
8:56 am 08:56 Partly Cloudy 47 8.3 38 3.3 71 71 SSW 12 19 29.45 997 10 16 0.00 0.00
9:56 am 09:56 Mostly Cloudy with Light Rain 48 8.9 40 4.4 74 74 SW 14 22 29.44 997 10 16 0.00 0.00
10:56 am 10:56 Cloudy 53 11.7 42 5.6 66 66 SW 14 22 29.41 996 10 16 0.00 0.00
11:46 am 11:46 Cloudy 57 14 39 4 51 51 WNW 24 39 29.39 995 10 16 0.00 0.00
11:56 am 11:56 Cloudy 57 13.9 40 4.4 53 53 WNW 15 24 29.41 996 10 16 0.00 0.00
12:56 pm 12:56 Cloudy 59 15 37 2.8 44 44 WNW 25 41 29.45 997 10 16 0.00 0.00
1:56 pm 13:56 Cloudy 50 10 34 1.1 54 54 NNW 28 44 29.52 1000 10 16 0.00 0.00
2:56 pm 14:56 Cloudy 49 9.4 32 0 52 52 NNW 18 30 29.53 1000 10 16 0.00 0.00
3:56 pm 15:56 Mostly Cloudy 52 11.1 30 -1.1 43 43 NNW 15 24 29.55 1001 10 16 0.00 0.00
4:56 pm 16:56 Partly Cloudy 56 13.3 26 -3.3 32 32 NNW 16 26 29.54 1000 10 16 0.00 0.00
5:56 pm 17:56 Mostly Cloudy 55 12.8 25 -3.9 31 31 NNW 10 17 29.57 1001 10 16 0.00 0.00
6:56 pm 18:56 Sunny 57 13.9 9 -12.8 15 15 NW 24 39 29.57 1001 10 16 0.00 0.00
7:56 pm 19:56 Sunny 54 12.2 10 -12.2 17 17 NW 24 39 29.62 1003 10 16 0.00 0.00
8:56 pm 20:56 Clear 50 10 13 -10.6 22 22 WNW 14 22 29.67 1005 10 16 0.00 0.00
9:56 pm 21:56 Clear 46 7.8 12 -11.1 25 25 NW 7 11 29.69 1005 10 16 0.00 0.00
10:56 pm 22:56 Clear 43 6.1 13 -10.6 29 29 WNW 10 17 29.73 1007 10 16 0.00 0.00
11:56 pm 23:56 Clear 41 5 16 -8.9 36 36 W 8 13 29.75 1007 10 16 0.00 0.00

Powered by AerisWeather